Time,TemperatureF,DewpointF,PressureIn,WindDirection,WindDirectionDegrees,WindSpeedMPH,WindSpeedGustMPH,Humidity,HourlyPrecipIn,Conditions,Clouds,dailyrainin,SolarRadiationWatts/m^2,SoftwareType,DateUTC
2013-09-07 00:22:00,47.0,47.0,-100.00,SW,215,2.0,3.0,99,0.01,,,0.15,0.000000,,2013-09-07 08:22:00,
2013-09-07 00:32:00,47.0,47.0,-100.00,SW,215,2.0,3.0,99,0.01,,,0.15,0.000000,,2013-09-07 08:32:00,
2013-09-07 00:43:00,47.0,47.0,-100.00,SW,215,2.0,3.0,99,0.01,,,0.15,0.000000,,2013-09-07 08:43:00,
2013-09-07 00:52:00,47.0,47.0,-100.00,SW,215,2.0,3.0,99,0.01,,,0.15,0.000000,,2013-09-07 08:52:00,
2013-09-07 01:21:00,47.0,47.0,-100.00,WSW,252,2.0,4.0,99,0.00,,,0.15,0.000000,,2013-09-07 09:21:00,
2013-09-07 01:32:00,47.0,47.0,-100.00,WSW,252,2.0,4.0,99,0.00,,,0.15,0.000000,,2013-09-07 09:32:00,
2013-09-07 01:52:00,47.0,47.0,-100.00,WSW,252,2.0,4.0,99,0.00,,,0.15,0.000000,,2013-09-07 09:52:00,
2013-09-07 02:21:00,47.0,47.0,-100.00,NW,304,2.0,5.0,99,0.01,,,0.16,0.000000,,2013-09-07 10:21:00,
2013-09-07 02:31:00,47.0,47.0,-100.00,NW,304,2.0,5.0,99,0.01,,,0.16,0.000000,,2013-09-07 10:31:00,
2013-09-07 02:51:00,47.0,47.0,-100.00,NW,304,2.0,5.0,99,0.01,,,0.16,0.000000,,2013-09-07 10:51:00,
2013-09-07 03:23:00,47.0,47.0,-100.00,East,83,1.0,4.0,99,0.00,,,0.16,0.000000,,2013-09-07 11:23:00,
2013-09-07 03:33:00,47.0,47.0,-100.00,East,83,1.0,4.0,99,0.00,,,0.16,0.000000,,2013-09-07 11:33:00,
2013-09-07 03:43:00,47.0,47.0,-100.00,East,83,1.0,4.0,99,0.00,,,0.16,0.000000,,2013-09-07 11:43:00,
2013-09-07 03:52:00,47.0,47.0,-100.00,East,83,1.0,4.0,99,0.00,,,0.16,0.000000,,2013-09-07 11:52:00,
2013-09-07 04:22:00,47.0,47.0,-100.00,SSE,161,1.0,3.0,100,0.00,,,0.16,0.000000,,2013-09-07 12:22:00,
2013-09-07 04:32:00,47.0,47.0,-100.00,SSE,161,1.0,3.0,100,0.00,,,0.16,0.000000,,2013-09-07 12:32:00,
2013-09-07 04:42:00,47.0,47.0,-100.00,SSE,161,1.0,3.0,100,0.00,,,0.16,0.000000,,2013-09-07 12:42:00,
2013-09-07 04:52:00,47.0,47.0,-100.00,SSE,161,1.0,3.0,100,0.00,,,0.16,0.000000,,2013-09-07 12:52:00,
2013-09-07 05:21:00,47.0,47.0,-100.00,South,187,2.0,3.0,100,0.00,,,0.16,0.000000,,2013-09-07 13:21:00,
2013-09-07 05:32:00,47.0,47.0,-100.00,South,187,2.0,3.0,100,0.00,,,0.16,0.000000,,2013-09-07 13:32:00,
2013-09-07 05:42:00,47.0,47.0,-100.00,South,187,2.0,3.0,100,0.00,,,0.16,0.000000,,2013-09-07 13:42:00,
2013-09-07 05:52:00,47.0,47.0,-100.00,South,187,2.0,3.0,100,0.00,,,0.16,0.000000,,2013-09-07 13:52:00,
2013-09-07 06:22:00,47.0,47.0,-100.00,NNW,347,1.0,2.0,100,0.00,,,0.16,0.000000,,2013-09-07 14:22:00,
2013-09-07 06:32:00,47.0,47.0,-100.00,NNW,347,1.0,2.0,100,0.00,,,0.16,0.000000,,2013-09-07 14:32:00,
2013-09-07 06:52:00,47.0,47.0,-100.00,NNW,347,1.0,2.0,100,0.00,,,0.16,0.000000,,2013-09-07 14:52:00,
2013-09-07 07:22:00,47.0,47.0,-100.00,WSW,248,1.0,3.0,100,0.00,,,0.16,0.000000,,2013-09-07 15:22:00,
2013-09-07 07:34:00,47.0,47.0,-100.00,WSW,248,1.0,3.0,100,0.00,,,0.16,0.000000,,2013-09-07 15:34:00,
2013-09-07 07:44:00,47.0,47.0,-100.00,WSW,248,1.0,3.0,100,0.00,,,0.16,0.000000,,2013-09-07 15:44:00,
2013-09-07 07:53:00,47.0,47.0,-100.00,WSW,248,1.0,3.0,100,0.00,,,0.16,0.000000,,2013-09-07 15:53:00,
2013-09-07 08:24:00,47.0,47.0,-100.00,NE,42,2.0,3.0,100,0.01,,,-99.99,6.000000,,2013-09-07 16:24:00,
2013-09-07 08:34:00,47.0,47.0,-100.00,NE,42,2.0,3.0,100,0.01,,,-99.99,6.000000,,2013-09-07 16:34:00,
2013-09-07 08:43:00,47.0,47.0,-100.00,NE,42,2.0,3.0,100,0.01,,,-99.99,6.000000,,2013-09-07 16:43:00,
2013-09-07 08:53:00,47.0,47.0,-100.00,NE,42,2.0,3.0,100,0.01,,,-99.99,6.000000,,2013-09-07 16:53:00,
2013-09-07 09:24:00,48.0,48.0,-100.00,SSW,199,0.0,2.0,100,0.00,,,0.11,22.000000,,2013-09-07 17:24:00,
2013-09-07 09:33:00,48.0,48.0,-100.00,SSW,199,0.0,2.0,100,0.00,,,0.11,22.000000,,2013-09-07 17:33:00,
2013-09-07 09:43:00,48.0,48.0,-100.00,SSW,199,0.0,2.0,100,0.00,,,0.11,22.000000,,2013-09-07 17:43:00,
2013-09-07 09:52:00,48.0,48.0,-100.00,SSW,199,0.0,2.0,100,0.00,,,0.11,22.000000,,2013-09-07 17:52:00,
2013-09-07 10:22:00,49.0,49.0,-100.00,SSW,209,1.0,2.0,100,0.01,,,0.09,36.000000,,2013-09-07 18:22:00,
2013-09-07 10:32:00,49.0,49.0,-100.00,SSW,209,1.0,2.0,100,0.01,,,0.09,36.000000,,2013-09-07 18:32:00,
2013-09-07 10:52:00,49.0,49.0,-100.00,SSW,209,1.0,2.0,100,0.01,,,0.09,36.000000,,2013-09-07 18:52:00,
2013-09-07 11:22:00,51.0,51.0,-100.00,NW,314,1.0,4.0,100,0.00,,,0.08,67.000000,,2013-09-07 19:22:00,
2013-09-07 11:32:00,51.0,51.0,-100.00,NW,314,1.0,4.0,100,0.00,,,0.08,67.000000,,2013-09-07 19:32:00,
2013-09-07 11:42:00,51.0,51.0,-100.00,NW,314,1.0,4.0,100,0.00,,,0.08,67.000000,,2013-09-07 19:42:00,
2013-09-07 11:52:00,51.0,51.0,-100.00,NW,314,1.0,4.0,100,0.00,,,0.08,67.000000,,2013-09-07 19:52:00,
2013-09-07 12:22:00,53.0,52.0,-100.00,NNE,32,2.0,3.0,97,0.00,,,0.08,130.000000,,2013-09-07 20:22:00,
2013-09-07 12:32:00,53.0,52.0,-100.00,NNE,32,2.0,3.0,97,0.00,,,0.08,130.000000,,2013-09-07 20:32:00,
2013-09-07 12:52:00,53.0,52.0,-100.00,NNE,32,2.0,3.0,97,0.00,,,0.08,130.000000,,2013-09-07 20:52:00,
2013-09-07 13:22:00,56.0,54.0,-100.00,NW,310,1.0,3.0,93,0.00,,,0.05,161.000000,,2013-09-07 21:22:00,
2013-09-07 13:34:00,56.0,54.0,-100.00,NW,310,1.0,3.0,93,0.00,,,0.05,161.000000,,2013-09-07 21:34:00,
2013-09-07 13:54:00,56.0,54.0,-100.00,NW,310,1.0,3.0,93,0.00,,,0.05,161.000000,,2013-09-07 21:54:00,
2013-09-07 14:24:00,56.0,52.0,-100.00,WSW,237,2.0,5.0,85,0.00,,,0.05,182.000000,,2013-09-07 22:24:00,
2013-09-07 14:33:00,56.0,52.0,-100.00,WSW,237,2.0,5.0,85,0.00,,,0.05,182.000000,,2013-09-07 22:33:00,
2013-09-07 14:43:00,56.0,52.0,-100.00,WSW,237,2.0,5.0,85,0.00,,,0.05,182.000000,,2013-09-07 22:43:00,
2013-09-07 14:53:00,56.0,52.0,-100.00,WSW,237,2.0,5.0,85,0.00,,,0.05,182.000000,,2013-09-07 22:53:00,
2013-09-07 15:23:00,57.0,52.0,-100.00,NW,309,2.0,5.0,82,0.00,,,0.05,184.000000,,2013-09-07 23:23:00,
2013-09-07 15:34:00,57.0,52.0,-100.00,NW,309,2.0,5.0,82,0.00,,,0.05,184.000000,,2013-09-07 23:34:00,
2013-09-07 15:42:00,57.0,52.0,-100.00,NW,309,2.0,5.0,82,0.00,,,0.05,184.000000,,2013-09-07 23:42:00,
2013-09-07 15:52:00,57.0,52.0,-100.00,NW,309,2.0,5.0,82,0.00,,,0.05,184.000000,,2013-09-07 23:52:00,
2013-09-07 16:22:00,59.0,52.0,-100.00,NNW,342,3.0,6.0,79,0.00,,,0.05,277.000000,,2013-09-08 00:22:00,
2013-09-07 16:32:00,59.0,52.0,-100.00,NNW,342,3.0,6.0,79,0.00,,,0.05,277.000000,,2013-09-08 00:32:00,
2013-09-07 16:42:00,59.0,52.0,-100.00,NNW,342,3.0,6.0,79,0.00,,,0.05,277.000000,,2013-09-08 00:42:00,
2013-09-07 16:52:00,59.0,52.0,-100.00,NNW,342,3.0,6.0,79,0.00,,,0.05,277.000000,,2013-09-08 00:52:00,
2013-09-07 17:22:00,60.0,53.0,-100.00,NNW,335,2.0,5.0,77,0.00,,,0.05,264.000000,,2013-09-08 01:22:00,
2013-09-07 17:32:00,60.0,53.0,-100.00,NNW,335,2.0,5.0,77,0.00,,,0.05,264.000000,,2013-09-08 01:32:00,
2013-09-07 17:52:00,60.0,53.0,-100.00,NNW,335,2.0,5.0,77,0.00,,,0.05,264.000000,,2013-09-08 01:52:00,
2013-09-07 18:22:00,58.0,51.0,-100.00,NW,308,3.0,7.0,78,0.00,,,0.05,240.000000,,2013-09-08 02:22:00,
2013-09-07 18:32:00,58.0,51.0,-100.00,NW,308,3.0,7.0,78,0.00,,,0.05,240.000000,,2013-09-08 02:32:00,
2013-09-07 18:43:00,58.0,51.0,-100.00,NW,308,3.0,7.0,78,0.00,,,0.05,240.000000,,2013-09-08 02:43:00,
2013-09-07 18:52:00,58.0,51.0,-100.00,NW,308,3.0,7.0,78,0.00,,,0.05,240.000000,,2013-09-08 02:52:00,
2013-09-07 19:22:00,58.0,52.0,-100.00,WNW,283,3.0,6.0,80,0.00,,,0.05,164.000000,,2013-09-08 03:22:00,
2013-09-07 19:34:00,58.0,52.0,-100.00,WNW,283,3.0,6.0,80,0.00,,,0.05,164.000000,,2013-09-08 03:34:00,
2013-09-07 19:44:00,58.0,52.0,-100.00,WNW,283,3.0,6.0,80,0.00,,,0.05,164.000000,,2013-09-08 03:44:00,
2013-09-07 19:54:00,58.0,52.0,-100.00,WNW,283,3.0,6.0,80,0.00,,,0.05,164.000000,,2013-09-08 03:54:00,
2013-09-07 20:24:00,55.0,52.0,-100.00,WNW,301,2.0,6.0,88,0.00,,,0.05,57.000000,,2013-09-08 04:24:00,
2013-09-07 20:34:00,55.0,52.0,-100.00,WNW,301,2.0,6.0,88,0.00,,,0.05,57.000000,,2013-09-08 04:34:00,
2013-09-07 20:43:00,55.0,52.0,-100.00,WNW,301,2.0,6.0,88,0.00,,,0.05,57.000000,,2013-09-08 04:43:00,
2013-09-07 20:53:00,55.0,52.0,-100.00,WNW,301,2.0,6.0,88,0.00,,,0.05,57.000000,,2013-09-08 04:53:00,
2013-09-07 21:23:00,53.0,51.0,-100.00,North,350,0.0,3.0,94,0.00,,,0.05,13.000000,,2013-09-08 05:23:00,
2013-09-07 21:34:00,53.0,51.0,-100.00,North,350,0.0,3.0,94,0.00,,,0.05,13.000000,,2013-09-08 05:34:00,
2013-09-07 21:43:00,53.0,51.0,-100.00,North,350,0.0,3.0,94,0.00,,,0.05,13.000000,,2013-09-08 05:43:00,
2013-09-07 21:52:00,53.0,51.0,-100.00,North,350,0.0,3.0,94,0.00,,,0.05,13.000000,,2013-09-08 05:52:00,
2013-09-07 22:21:00,52.0,51.0,-100.00,ESE,122,0.0,2.0,97,0.00,,,0.05,0.000000,,2013-09-08 06:21:00,
2013-09-07 22:33:00,52.0,51.0,-100.00,ESE,122,0.0,2.0,97,0.00,,,0.05,0.000000,,2013-09-08 06:33:00,
2013-09-07 22:42:00,52.0,51.0,-100.00,ESE,122,0.0,2.0,97,0.00,,,0.05,0.000000,,2013-09-08 06:42:00,
2013-09-07 22:53:00,52.0,51.0,-100.00,ESE,122,0.0,2.0,97,0.00,,,0.05,0.000000,,2013-09-08 06:53:00,
2013-09-07 23:23:00,52.0,50.0,-100.00,ESE,102,0.0,3.0,94,0.01,,,0.05,0.000000,,2013-09-08 07:23:00,
2013-09-07 23:32:00,52.0,50.0,-100.00,ESE,102,0.0,3.0,94,0.01,,,0.05,0.000000,,2013-09-08 07:32:00,
2013-09-07 23:42:00,52.0,50.0,-100.00,ESE,102,0.0,3.0,94,0.01,,,0.05,0.000000,,2013-09-08 07:42:00,
2013-09-07 23:52:00,52.0,50.0,-100.00,ESE,102,0.0,3.0,94,0.01,,,0.05,0.000000,,2013-09-08 07:52:00,